Content
SEND FEEDBACK

Daily
Averages
Monthly
Summary
United States of America

HUGOTON, KANSAS


Home > North America > United States > Kansas
Elevation: 3111 feet     Latitude: 37 11N     Longitude: 101 21W

WEATHER
 
SELECT A DAY
Number of Records: 461,411;   Date Range: 1/1/95 - 7/26/14
 
SHARE

PRINT THIS DATA

[ ← Previous Day ]
WEATHER ALMANAC - JANUARY 31, 2013
[ Next Day → ]
[ °C ]   °F
Weather ElementAverageHighLow
Temperature32.3 °F46.4 °F (2:15 pm)19.4 °F (11:15 pm)
Dewpoint18.5 °F26.6 °F (12:55 pm)12.2 °F (2:15 am)
Humidity58 %74 % (6:15 am)43 % (2:55 pm)
Barometer30.12 in30.30 in (8:35 pm)29.96 in (2:15 am)
Wind Speed12.7 mph24.2 mph (12:15 pm)
Wind Gust27.6 mph (10:15 am)
Weather ElementAverage
Visibility10 mi
Wind DirectionSSE (156.9 °)

Weather ElementTotal
Precipitation---
Heating Degree Days32.1 (Base 65)
Averaged from 65 records on January 31, 2013
WEATHER CONDITIONS BREAKOUT
WIND DIRECTION BREAKOUT
WEATHER BY HOUR - JANUARY 31, 2013
[ °C ]   °F
Local TimeTemperatureDewpointHumidityBarometerVisibilityWind DirectionWind SpeedGust SpeedPrecipitationEventsConditions
12:35 AM28.4 °F14.0 °F55 %29.99 in10.0 miWSW (250°)9.2 mphMostly Cloudy
12:55 AM30.2 °F15.8 °F55 %29.99 in10.0 miWest (260°)10.4 mphScattered Clouds
1:15 AM28.4 °F14.0 °F55 %29.99 in10.0 miWSW (250°)9.2 mphClear
1:35 AM26.6 °F14.0 °F59 %29.98 in10.0 miWSW (250°)9.2 mphScattered Clouds
1:55 AM26.6 °F15.8 °F64 %29.98 in10.0 miWSW (250°)11.5 mphPartly Cloudy
2:15 AM24.8 °F12.2 °F59 %29.96 in10.0 miWSW (240°)9.2 mphClear
2:35 AM24.8 °F12.2 °F59 %29.96 in10.0 miWSW (250°)8.1 mphClear
2:55 AM23.0 °F12.2 °F63 %29.96 in10.0 miWest (260°)8.1 mphClear
3:15 AM24.8 °F12.2 °F59 %29.97 in10.0 miSW (220°)9.2 mphClear
3:35 AM24.8 °F14.0 °F64 %29.97 in10.0 miSW (230°)8.1 mphClear
3:55 AM23.0 °F12.2 °F63 %29.96 in10.0 miWSW (250°)5.8 mphClear
4:15 AM21.2 °F12.2 °F68 %29.96 in10.0 miWSW (250°)6.9 mphClear
4:35 AM21.2 °F12.2 °F68 %29.96 in10.0 miWest (260°)6.9 mphClear
4:55 AM21.2 °F12.2 °F68 %29.96 in10.0 miWSW (250°)8.1 mphClear
5:15 AM21.2 °F12.2 °F68 %29.97 in10.0 miWest (270°)4.6 mphClear
5:35 AM21.2 °F12.2 °F68 %29.96 in10.0 miWSW (240°)6.9 mphClear
6:15 AM24.8 °F17.6 °F74 %29.96 in10.0 miWest (280°)10.4 mphClear
6:35 AM26.6 °F15.8 °F64 %29.97 in10.0 miWest (270°)9.2 mphClear
6:55 AM24.8 °F15.8 °F69 %29.98 in10.0 miWest (270°)10.4 mphClear
7:15 AM26.6 °F15.8 °F64 %29.98 in10.0 miWest (270°)11.5 mphClear
7:35 AM26.6 °F17.6 °F69 %29.99 in10.0 miWest (270°)11.5 mphClear
7:55 AM26.6 °F15.8 °F64 %30.01 in10.0 miWNW (290°)12.7 mphClear
8:15 AM26.6 °F15.8 °F64 %30.01 in10.0 miWNW (290°)12.7 mphClear
8:35 AM28.4 °F19.4 °F69 %30.02 in10.0 miWNW (300°)11.5 mphClear
8:55 AM33.8 °F21.2 °F60 %30.04 in10.0 miNW (310°)17.3 mphClear
9:15 AM35.6 °F21.2 °F56 %30.07 in10.0 miNW (310°)18.4 mphMostly Cloudy
9:35 AM37.4 °F23.0 °F56 %30.08 in7.0 miNW (320°)17.3 mph23.0 mphPartly Cloudy
9:55 AM37.4 °F21.2 °F52 %30.09 in10.0 miNNW (340°)20.7 mphClear
10:15 AM37.4 °F23.0 °F56 %30.11 in10.0 miNorth (350°)21.9 mph27.6 mphClear
10:35 AM39.2 °F21.2 °F49 %30.12 in10.0 miNorth (10°)20.7 mph26.5 mphClear
10:55 AM41.0 °F24.8 °F53 %30.13 in10.0 miNNE (30°)20.7 mph26.5 mphClear
11:15 AM42.8 °F24.8 °F49 %30.13 in10.0 miNE (40°)18.4 mphClear
11:35 AM42.8 °F24.8 °F49 %30.14 in10.0 miNNE (30°)19.6 mphClear
11:55 AM44.6 °F24.8 °F46 %30.14 in10.0 miNE (40°)18.4 mphClear
12:15 PM44.6 °F24.8 °F46 %30.17 in10.0 miNNE (20°)24.2 mph27.6 mphClear
12:35 PM44.6 °F24.8 °F46 %30.17 in10.0 miNE (40°)19.6 mph27.6 mphClear
12:55 PM44.6 °F26.6 °F49 %30.16 in10.0 miNNE (30°)20.7 mph26.5 mphClear
1:15 PM44.6 °F24.8 °F46 %30.16 in10.0 miNNE (30°)13.8 mphClear
1:35 PM44.6 °F24.8 °F46 %30.17 in10.0 miNNE (20°)12.7 mph18.4 mphClear
2:15 PM46.4 °F26.6 °F46 %30.17 in10.0 miNNE (30°)15.0 mph21.9 mphClear
2:35 PM46.4 °F26.6 °F46 %30.16 in10.0 miNE (40°)13.8 mph20.7 mphClear
2:55 PM46.4 °F24.8 °F43 %30.17 in10.0 miNNE (30°)15.0 mphClear
3:15 PM44.6 °F24.8 °F46 %30.18 in10.0 miNE (40°)12.7 mphClear
3:35 PM44.6 °F24.8 °F46 %30.19 in10.0 miNNE (30°)11.5 mphClear
3:55 PM44.6 °F24.8 °F46 %30.19 in10.0 miNE (40°)11.5 mphClear
4:15 PM44.6 °F23.0 °F43 %30.19 in10.0 miENE (60°)11.5 mphClear
4:35 PM44.6 °F23.0 °F43 %30.20 in10.0 miENE (60°)8.1 mphClear
4:55 PM42.8 °F23.0 °F46 %30.21 in10.0 miEast (90°)8.1 mphClear
5:15 PM42.8 °F23.0 °F46 %30.22 in10.0 miEast (80°)5.8 mphClear
5:35 PM42.8 °F23.0 °F46 %30.23 in10.0 miESE (110°)6.9 mphClear
6:15 PM37.4 °F21.2 °F52 %30.24 in10.0 miEast (90°)12.7 mphClear
6:35 PM35.6 °F17.6 °F48 %30.24 in10.0 miEast (100°)13.8 mph19.6 mphClear
7:15 PM30.2 °F17.6 °F60 %30.27 in10.0 miEast (100°)15.0 mph19.6 mphClear
7:35 PM28.4 °F15.8 °F59 %30.27 in10.0 miEast (90°)15.0 mph20.7 mphClear
7:55 PM28.4 °F15.8 °F59 %30.28 in10.0 miEast (90°)15.0 mphClear
8:15 PM26.6 °F15.8 °F64 %30.29 in10.0 miEast (90°)15.0 mphClear
8:35 PM26.6 °F15.8 °F64 %30.30 in10.0 miEast (100°)13.8 mphClear
8:55 PM24.8 °F15.8 °F69 %30.29 in10.0 miEast (90°)13.8 mphClear
9:15 PM24.8 °F15.8 °F69 %30.30 in10.0 miEast (90°)11.5 mphClear
9:35 PM23.0 °F15.8 °F74 %30.29 in10.0 miEast (100°)12.7 mphClear
9:55 PM23.0 °F14.0 °F68 %30.29 in10.0 miEast (100°)12.7 mphClear
10:15 PM21.2 °F14.0 °F74 %30.29 in10.0 miEast (100°)12.7 mphClear
10:35 PM21.2 °F14.0 °F74 %30.29 in10.0 miEast (100°)10.4 mphClear
11:15 PM19.4 °F12.2 °F74 %30.28 in10.0 miEast (100°)11.5 mphClear
11:35 PM19.4 °F12.2 °F74 %30.28 in10.0 miESE (110°)11.5 mphClear
Hourly data recorded from KLBL, located miles away from Hugoton, Kansas







STORIES FROM OUR PARTNERS